Satellite: NO-44
Catalog number: 26931
Epoch time:      11006.57732990
Element set:     648
Inclination:      067.0524 deg
RA of node:       039.9398 deg
Eccentricity:    0.0006641
Arg of perigee:   273.1830 deg
Mean anomaly:     086.8499 deg
Mean motion:   14.29629375 rev/day
Decay rate:       1.14e-06 rev/day^2
Epoch rev:           48382
Checksum:              336

Satellite: SO-50
Catalog number: 27607
Epoch time:      11005.65801414
Element set:    0360
Inclination:      064.5589 deg
RA of node:       101.4898 deg
Eccentricity:    0.0054021
Arg of perigee:   000.7431 deg
Mean anomaly:     359.3726 deg
Mean motion:   14.71626507 rev/day
Decay rate:        1.0e-08 rev/day^2
Epoch rev:           43217
Checksum:              271

Satellite: CO-55
Catalog number: 27844
Epoch time:      11005.92157320
Element set:    0017
Inclination:      098.7079 deg
RA of node:       016.9766 deg
Eccentricity:    0.0009443
Arg of perigee:   310.7327 deg
Mean anomaly:     049.3042 deg
Mean motion:   14.20759434 rev/day
Decay rate:        8.0e-07 rev/day^2
Epoch rev:           38987
Checksum:              312

Satellite: CO-57
Catalog number: 27848
Epoch time:      11005.55847493
Element set:    0964
Inclination:      098.7136 deg
RA of node:       015.7576 deg
Eccentricity:    0.0009454
Arg of perigee:   316.5065 deg
Mean anomaly:     043.5377 deg
Mean motion:   14.20546119 rev/day
Decay rate:        8.2e-07 rev/day^2
Epoch rev:           38977
Checksum:              342

Satellite: AO-51
Catalog number: 28375
Epoch time:      11006.01577868
Element set:     865
Inclination:      098.0787 deg
RA of node:       353.1586 deg
Eccentricity:    0.0082937
Arg of perigee:   201.6717 deg
Mean anomaly:     158.0951 deg
Mean motion:   14.40718369 rev/day
Decay rate:        3.2e-07 rev/day^2
Epoch rev:           34271
Checksum:              328

Satellite: CP3
Catalog number: 31129
Epoch time:      11005.63408376
Element set:    0766
Inclination:      097.9170 deg
RA of node:       039.1216 deg
Eccentricity:    0.0101774
Arg of perigee:   326.3340 deg
Mean anomaly:     033.1412 deg
Mean motion:   14.52359273 rev/day
Decay rate:       1.21e-06 rev/day^2
Epoch rev:           19724
Checksum:              269

Satellite: CO-65
Catalog number: 32785
Epoch time:      11005.21436984
Element set:    0881
Inclination:      097.8730 deg
RA of node:       072.0754 deg
Eccentricity:    0.0014773
Arg of perigee:   351.8719 deg
Mean anomaly:     008.2272 deg
Mean motion:   14.81802038 rev/day
Decay rate:       5.58e-06 rev/day^2
Epoch rev:           14540
Checksum:              310

Satellite: KKS-1
Catalog number: 33493
Epoch time:      11006.60124664
Element set:     194
Inclination:      098.1046 deg
RA of node:       133.1367 deg
Eccentricity:    0.0019475
Arg of perigee:   200.2956 deg
Mean anomaly:     159.7490 deg
Mean motion:   14.81271617 rev/day
Decay rate:       6.82e-06 rev/day^2
Epoch rev:           10559
Checksum:              295

Satellite: SOHLA-1
Catalog number: 33496
Epoch time:      11006.75092445
Element set:     300
Inclination:      098.0691 deg
RA of node:       118.3591 deg
Eccentricity:    0.0005482
Arg of perigee:   277.9270 deg
Mean anomaly:     082.1332 deg
Mean motion:   14.69546368 rev/day
Decay rate:        4.6e-07 rev/day^2
Epoch rev:           10477
Checksum:              298

Satellite: TISAT-1
Catalog number: 36799
Epoch time:      11006.59741765
Element set:     468
Inclination:      098.1240 deg
RA of node:       073.1255 deg
Eccentricity:    0.0016743
Arg of perigee:   079.8159 deg
Mean anomaly:     280.4946 deg
Mean motion:   14.80282238 rev/day
Decay rate:       4.16e-06 rev/day^2
Epoch rev:            2640
Checksum:              316

Satellite: STUDSAT
Catalog number: 36801
Epoch time:      11005.97941268
Element set:    0126
Inclination:      098.1270 deg
RA of node:       072.3677 deg
Eccentricity:    0.0014946
Arg of perigee:   069.7741 deg
Mean anomaly:     290.5074 deg
Mean motion:   14.79925034 rev/day
Decay rate:      1.055e-05 rev/day^2
Epoch rev:           02630
Checksum:              298

Satellite: RAX
Catalog number: 37223
Epoch time:      11004.54666099
Element set:    0046
Inclination:      071.9737 deg
RA of node:       039.8825 deg
Eccentricity:    0.0022634
Arg of perigee:   233.4835 deg
Mean anomaly:     126.4234 deg
Mean motion:   14.77209942 rev/day
Decay rate:       2.57e-06 rev/day^2
Epoch rev:           00672
Checksum:              297

Satellite: OOREOS
Catalog number: 37224
Epoch time:      10361.49649035
Element set:    0041
Inclination:      071.9733 deg
RA of node:       057.6930 deg
Eccentricity:    0.0021329
Arg of perigee:   245.9311 deg
Mean anomaly:     113.9603 deg
Mean motion:   14.76870385 rev/day
Decay rate:       2.32e-06 rev/day^2
Epoch rev:           00552
Checksum:              276

Satellite: FASTSAT
Catalog number: 37225
Epoch time:      10339.55430316
Element set:    0021
Inclination:      071.9720 deg
RA of node:       106.1057 deg
Eccentricity:    0.0019965
Arg of perigee:   280.4841 deg
Mean anomaly:     079.4053 deg
Mean motion:   14.76483442 rev/day
Decay rate:        4.1e-07 rev/day^2
Epoch rev:           00228
Checksum:              266

